TimeCDT,TemperatureF,Dew PointF,Humidity,Sea Level PressureIn,VisibilityMPH,Wind Direction,Wind SpeedMPH,Gust SpeedMPH,PrecipitationIn,Events,Conditions,WindDirDegrees,DateUTC
12:15 AM,78.4,63.9,61,30.00,10.0,SSW,4.6,-,N/A,,Unknown,200,2013-07-03 05:15:00
12:35 AM,78.6,63.5,60,30.00,10.0,SSW,3.5,-,N/A,,Unknown,200,2013-07-03 05:35:00
12:55 AM,78.3,63.5,60,30.00,10.0,SW,3.5,-,N/A,,Unknown,220,2013-07-03 05:55:00
1:15 AM,77.4,63.5,62,30.00,10.0,SW,3.5,-,N/A,,Unknown,220,2013-07-03 06:15:00
1:35 AM,76.3,63.5,64,29.99,10.0,SW,3.5,-,N/A,,Unknown,230,2013-07-03 06:35:00
1:55 AM,76.1,63.5,65,29.99,10.0,Calm,Calm,-,N/A,,Unknown,0,2013-07-03 06:55:00
2:15 AM,76.1,63.7,65,29.99,10.0,SW,3.5,-,N/A,,Unknown,220,2013-07-03 07:15:00
2:35 AM,75.2,63.9,68,29.98,10.0,Calm,Calm,-,N/A,,Unknown,0,2013-07-03 07:35:00
2:55 AM,76.3,63.9,65,29.98,10.0,Calm,Calm,-,N/A,,Unknown,0,2013-07-03 07:55:00
3:15 AM,75.9,64.4,67,29.98,10.0,Calm,Calm,-,N/A,,Unknown,0,2013-07-03 08:15:00
3:35 AM,73.0,64.9,76,29.98,10.0,Calm,Calm,-,N/A,,Unknown,0,2013-07-03 08:35:00
3:55 AM,72.1,65.3,79,29.98,10.0,Calm,Calm,-,N/A,,Unknown,0,2013-07-03 08:55:00
4:15 AM,73.0,64.8,75,29.97,10.0,Calm,Calm,-,N/A,,Unknown,0,2013-07-03 09:15:00
4:35 AM,73.0,65.3,77,29.97,10.0,Calm,Calm,-,N/A,,Unknown,0,2013-07-03 09:35:00
4:55 AM,73.0,65.1,76,29.96,10.0,Calm,Calm,-,N/A,,Unknown,0,2013-07-03 09:55:00
5:15 AM,72.7,66.0,80,29.97,10.0,Calm,Calm,-,N/A,,Unknown,0,2013-07-03 10:15:00
5:35 AM,71.8,65.5,80,29.97,10.0,Calm,Calm,-,N/A,,Unknown,0,2013-07-03 10:35:00
5:55 AM,72.1,65.7,80,29.97,10.0,Calm,Calm,-,N/A,,Unknown,0,2013-07-03 10:55:00
6:15 AM,70.2,65.5,85,29.97,10.0,Calm,Calm,-,N/A,,Unknown,0,2013-07-03 11:15:00
6:35 AM,70.7,65.3,83,29.97,10.0,Calm,Calm,-,N/A,,Unknown,0,2013-07-03 11:35:00
6:55 AM,69.6,65.3,86,29.98,10.0,East,3.5,-,N/A,,Unknown,100,2013-07-03 11:55:00
7:15 AM,69.8,65.8,87,29.99,10.0,Calm,Calm,-,N/A,,Unknown,0,2013-07-03 12:15:00
7:35 AM,70.5,66.6,87,30.00,10.0,East,3.5,-,N/A,,Unknown,90,2013-07-03 12:35:00
7:55 AM,71.4,67.1,86,30.00,10.0,Calm,Calm,-,N/A,,Unknown,0,2013-07-03 12:55:00
8:15 AM,73.2,67.8,83,30.01,10.0,Calm,Calm,-,N/A,,Unknown,0,2013-07-03 13:15:00
8:35 AM,76.6,68.7,76,30.01,10.0,Calm,Calm,-,N/A,,Unknown,0,2013-07-03 13:35:00
8:55 AM,79.7,68.9,69,30.01,10.0,WNW,3.5,-,N/A,,Unknown,290,2013-07-03 13:55:00
9:15 AM,82.0,68.2,63,30.01,10.0,Calm,Calm,-,N/A,,Unknown,0,2013-07-03 14:15:00
9:35 AM,84.4,67.8,57,30.01,10.0,West,3.5,-,N/A,,Unknown,260,2013-07-03 14:35:00
9:55 AM,86.2,66.6,52,30.01,10.0,NW,3.5,-,N/A,,Unknown,310,2013-07-03 14:55:00
10:15 AM,87.8,66.6,49,30.01,10.0,Calm,Calm,-,N/A,,Unknown,0,2013-07-03 15:15:00
10:35 AM,89.1,63.5,42,30.01,10.0,Calm,Calm,-,N/A,,Unknown,0,2013-07-03 15:35:00
10:55 AM,90.1,61.9,39,30.01,10.0,Calm,Calm,-,N/A,,Unknown,0,2013-07-03 15:55:00
11:15 AM,91.4,60.4,35,30.01,10.0,ENE,3.5,-,N/A,,Unknown,70,2013-07-03 16:15:00
11:35 AM,92.5,58.5,32,30.00,10.0,NNE,3.5,-,N/A,,Unknown,30,2013-07-03 16:35:00
11:55 AM,94.3,55.0,27,30.00,10.0,South,3.5,-,N/A,,Unknown,170,2013-07-03 16:55:00
12:15 PM,93.6,57.6,30,29.99,10.0,NNE,4.6,-,N/A,,Unknown,30,2013-07-03 17:15:00
12:35 PM,93.6,56.8,29,29.99,10.0,North,5.8,-,N/A,,Unknown,350,2013-07-03 17:35:00
12:55 PM,96.1,56.1,26,29.98,10.0,East,4.6,-,N/A,,Unknown,80,2013-07-03 17:55:00
1:15 PM,95.9,55.0,25,29.98,10.0,WNW,3.5,-,N/A,,Unknown,290,2013-07-03 18:15:00
1:35 PM,96.1,56.3,26,29.97,10.0,Calm,Calm,-,N/A,,Unknown,0,2013-07-03 18:35:00
1:55 PM,95.2,55.6,26,29.96,10.0,NE,3.5,-,N/A,,Unknown,40,2013-07-03 18:55:00
2:15 PM,95.2,56.1,27,29.95,10.0,Calm,Calm,-,N/A,,Unknown,0,2013-07-03 19:15:00
2:35 PM,97.9,55.2,24,29.94,10.0,Calm,Calm,-,N/A,,Unknown,0,2013-07-03 19:35:00
2:55 PM,96.1,56.5,26,29.94,10.0,NE,6.9,-,N/A,,Unknown,40,2013-07-03 19:55:00
3:15 PM,96.3,55.4,25,29.93,10.0,West,4.6,-,N/A,,Unknown,270,2013-07-03 20:15:00
3:35 PM,96.6,57.0,27,29.92,10.0,ENE,10.4,-,N/A,,Unknown,60,2013-07-03 20:35:00
3:55 PM,98.6,57.2,25,29.91,10.0,ENE,8.1,-,N/A,,Unknown,70,2013-07-03 20:55:00
4:15 PM,97.2,57.0,26,29.91,10.0,East,5.8,18.4,N/A,,Unknown,90,2013-07-03 21:15:00
4:35 PM,96.4,60.3,30,29.91,10.0,ESE,9.2,17.3,N/A,,Unknown,110,2013-07-03 21:35:00
4:55 PM,97.3,59.9,29,29.90,10.0,ESE,8.1,18.4,N/A,,Unknown,110,2013-07-03 21:55:00
5:15 PM,96.1,59.9,30,29.89,10.0,East,10.4,17.3,N/A,,Unknown,100,2013-07-03 22:15:00
5:35 PM,96.1,59.9,30,29.88,10.0,SE,10.4,16.1,N/A,,Unknown,130,2013-07-03 22:35:00
5:55 PM,95.4,58.6,29,29.88,10.0,ESE,8.1,-,N/A,,Unknown,120,2013-07-03 22:55:00
6:15 PM,95.5,58.8,29,29.88,10.0,ESE,9.2,-,N/A,,Unknown,110,2013-07-03 23:15:00
6:35 PM,94.5,59.0,30,29.88,10.0,ESE,12.7,18.4,N/A,,Unknown,120,2013-07-03 23:35:00
6:55 PM,93.2,59.0,32,29.88,10.0,ESE,10.4,17.3,N/A,,Unknown,110,2013-07-03 23:55:00
7:15 PM,92.3,58.6,32,29.88,10.0,ESE,11.5,17.3,N/A,,Unknown,110,2013-07-04 00:15:00
7:35 PM,91.2,59.0,34,29.89,10.0,ESE,9.2,-,N/A,,Unknown,110,2013-07-04 00:35:00
7:55 PM,90.0,59.7,36,29.90,10.0,ESE,9.2,-,N/A,,Unknown,110,2013-07-04 00:55:00
8:15 PM,88.7,60.8,39,29.90,10.0,East,9.2,-,N/A,,Unknown,100,2013-07-04 01:15:00
8:35 PM,87.3,64.2,46,29.91,10.0,ESE,5.8,-,N/A,,Unknown,110,2013-07-04 01:35:00
8:55 PM,86.0,66.4,52,29.91,10.0,ESE,9.2,-,N/A,,Unknown,110,2013-07-04 01:55:00
9:15 PM,85.1,67.6,56,29.91,10.0,ESE,6.9,-,N/A,,Unknown,120,2013-07-04 02:15:00
9:35 PM,84.4,68.9,60,29.92,10.0,ESE,6.9,-,N/A,,Unknown,120,2013-07-04 02:35:00
9:55 PM,83.7,69.3,62,29.92,10.0,ESE,5.8,-,N/A,,Unknown,120,2013-07-04 02:55:00
10:15 PM,83.1,69.4,63,29.93,10.0,ESE,6.9,-,N/A,,Unknown,120,2013-07-04 03:15:00
10:35 PM,82.6,69.8,65,29.93,10.0,ESE,8.1,-,N/A,,Unknown,120,2013-07-04 03:35:00
10:55 PM,82.2,69.8,66,29.93,10.0,SE,6.9,-,N/A,,Unknown,130,2013-07-04 03:55:00
11:15 PM,81.5,69.8,67,29.95,10.0,SE,5.8,-,N/A,,Unknown,140,2013-07-04 04:15:00
11:35 PM,80.6,69.8,70,29.95,10.0,SE,4.6,-,N/A,,Unknown,140,2013-07-04 04:35:00
11:55 PM,79.7,69.8,72,29.96,10.0,SSE,3.5,-,N/A,,Unknown,150,2013-07-04 04:55:00